Погода в Мокрой Кице

Россия / Мурманская область     68°38′08″N   33°17′52″E
темп.,
°C
ветер,
м/с
пор.,
м/с
влажн.,
%
обл.,
%
осадки,
мм/ч
давл.,
гПа
погр.,
м
4 декабря, сб
сб400:00−16ююв119990 0.0 101810
03:00−18ююв1110062 0.0 10199
06:00−19ююв119953 0.0 10209
09:00−19ю119951 0.0 10219
12:00−20ююв1110040 0.0 10239
15:00−20ю1110018 0.0 102410
18:00−20ю1110044 0.0 102413
21:00−21ю1110043 0.0 102613
5 декабря, вс
вс500:00−21ю2110045 0.0 102618
03:00−21ююз2110060 0.0 102716
06:00−21ююз2210077 0.0 102621
09:00−21ююз2210078 0.0 102729
12:00−21ююз2210037 0.0 102733
15:00−19ююз259613 0.0 1026106
18:00−14юз416825 0.0 1026486
21:00−13зюз516805 0.0 1026547
6 декабря, пн
пн600:00−13зюз617805 0.0 1025624
03:00−13зюз618775 0.0 1025669
06:00−13зюз618747 0.0 1024651
09:00−13зюз6177674 0.0 1024571
12:00−13зюз516797 0.0 1024522
15:00−14зюз515792 0.0 1024483
18:00−15зюз414765 0.0 1024388
21:00−20ююз24905 0.0 102585
7 декабря, вт
вт700:00−22ююз22945 0.0 102534
03:00−22ююз22935 0.0 102631
06:00−21ююз22925 0.0 102633
09:00−21ююз22945 0.0 102731
12:00−20ю22955 0.0 102832
15:00−20ю22985 0.0 102836
18:00−19ю229937 0.0 102932
21:00−20ю2210062 0.0 102932
8 декабря, ср
ср800:00−21ю2110084 0.0 103022
03:00−22ю2210086 0.0 102915
06:00−22ююв1110088 0.0 102910
09:00−22ю1110071 0.0 10289
12:00−23ююв1110050 0.0 102810
15:00−23ююв1110043 0.0 102711
18:00−23ююв1110040 0.0 10279
21:00−23ююв1110013 0.0 102610